#timestamp,LO_Frequency,Hit,StdDev 
1678230015.2,286047002.3,N
1678230035.1,286046999.7,N
1678230036.0,286046999.7,N
1678230055.8,286047002.8,N
1678230075.6,286046999.7,N
1678230095.5,286047000.9,N
1678230115.3,286047000.3,N
1678230135.1,286047000.2,N
1678230155.9,286046999.8,N
1678230175.7,286046999.9,N
1678230195.6,286047000.1,N
1678230215.4,286047000.8,N
1678230235.2,286047000.1,N
1678230255.1,286047001.9,N
1678230256.0,286047001.9,N
1678230275.8,286047002.2,N
1678230295.7,286047002.2,N
1678230315.5,286047000.3,N
1678230335.3,286047001.0,N
1678230355.2,286046998.2,N
1678230375.0,286047000.8,N
1678230375.9,286047000.8,N
1678230395.7,286046998.1,N
1678230415.6,286046998.9,N
1678230435.4,286046999.4,N
1678230455.3,286046999.4,N
1678230475.1,286046999.3,N
1678230476.0,286046999.3,N
1678230495.8,286046999.0,N
1678230515.7,286046996.5,N
1678230535.5,286046996.7,N
1678230555.3,286046997.2,N
1678230575.2,286046994.9,Y
1678230595.0,286046997.2,P
1678230595.9,286046997.2,N
1678230615.8,286046999.2,N
1678230635.6,286046997.0,N
1678230655.4,286046996.9,N
1678230675.3,286046997.0,N
1678230695.1,286046997.3,N
1678230715.9,286046998.6,N
1678230735.7,286046998.4,N
1678230755.5,286046997.0,N
1678230775.4,286046995.2,Y
1678230795.2,286046998.7,P
1678230815.0,286046999.6,N
1678230815.9,286046999.6,N
1678230835.8,286046997.2,Y
1678230855.6,286046998.1,P
1678230875.5,286046999.4,N
1678230895.3,286046996.7,P
1678230915.1,286046999.4,N
1678230935.9,286046997.1,N
1678230955.7,286046998.6,N
1678230975.5,286046998.5,N
1678230995.4,286047001.2,N
1678231015.2,286046998.3,N
1678231035.1,286046999.6,N
1678231036.0,286046999.6,N
1678231055.8,286047000.6,N
1678231075.6,286047000.7,N
1678231095.5,286046999.9,N
1678231115.3,286046999.8,N
1678231135.1,286047000.5,N
1678231155.9,286047002.5,N
1678231175.7,286047000.0,N
1678231195.6,286047001.8,N
1678231215.4,286046999.9,N
1678231235.2,286047000.7,N
1678231255.1,286046999.9,N
1678231256.0,286046999.9,N
1678231275.8,286047000.0,N
1678231295.6,286047000.3,N
1678231315.5,286047002.3,N
1678231335.3,286047000.7,N
1678231355.2,286046998.1,N
1678231375.9,286047002.6,N
1678231395.7,286047000.7,N
1678231415.6,286047000.0,N
1678231435.4,286047002.5,N
1678231455.2,286047002.2,N
1678231475.1,286047000.0,N
1678231476.0,286047000.0,N
1678231495.8,286047001.2,N
1678231515.7,286046998.6,N
1678231535.5,286046998.9,N
1678231555.3,286047000.6,N
1678231575.2,286047000.8,N
1678231595.0,286047001.2,N
1678231595.9,286047001.2,N
1678231615.7,286047000.6,N
1678231635.6,286047000.6,N
1678231655.4,286047000.8,N
1678231675.3,286047000.8,N
1678231695.1,286047001.0,N
1678231696.0,286047001.0,N
1678231715.8,286046998.6,N
1678231735.7,286047002.4,N
1678231755.5,286047002.8,N
1678231775.3,286047002.8,N
1678231795.2,286046999.8,N
1678231815.0,286047002.7,N
1678231815.9,286047002.7,N
1678231835.8,286047002.1,N
1678231855.6,286047001.5,N
1678231875.4,286047004.3,Y
1678231895.3,286047004.0,P
1678231915.1,286047002.4,N
1678231935.8,286047000.2,N
1678231955.7,286047000.9,N
1678231975.5,286047002.0,N
1678231995.4,286047002.1,N
1678232015.2,286047000.8,N
1678232035.0,286046998.6,N
1678232035.9,286046998.6,N
1678232055.8,286047000.1,N
1678232075.6,286047004.4,N
1678232095.5,286047002.8,N
1678232115.3,286047000.0,N
1678232135.1,286047000.1,N
1678232155.9,286047002.8,N
1678232175.7,286047000.5,N
1678232195.5,286047000.7,N
1678232215.4,286047000.7,N
1678232235.2,286046999.5,N
1678232255.1,286046998.1,N
1678232256.0,286046998.1,N
1678232275.8,286047000.3,N
1678232295.6,286046998.2,N
1678232315.5,286046999.1,N
1678232335.3,286046998.7,N
1678232355.1,286046999.2,N
1678232375.9,286046997.7,N
1678232395.7,286046997.6,N
1678232415.6,286046998.9,N
1678232435.4,286046999.0,N
1678232455.2,286046998.5,N
1678232475.1,286046999.1,N
1678232476.0,286046999.1,N
1678232495.8,286046996.5,N
1678232515.6,286046996.5,N
1678232535.5,286046997.3,N
1678232555.3,286046999.3,N
1678232575.2,286046998.6,N
1678232595.9,286046999.8,N
1678232615.7,286046999.3,N
1678232635.6,286046996.7,N
1678232655.4,286046998.7,N
1678232675.2,286046996.9,N
1678232695.1,286046997.4,N
1678232696.0,286046997.4,N
1678232715.8,286046996.7,N
1678232735.7,286046997.1,N
1678232755.5,286046998.8,N
1678232775.3,286046997.0,N
1678232795.2,286046998.1,N
1678232815.0,286046999.1,N
1678232815.9,286046999.1,N
1678232835.8,286046997.0,Y
1678232855.6,286046998.8,P
1678232875.4,286046998.4,P
1678232895.3,286046999.0,P
1678232915.1,286046999.1,N
1678232935.8,286046999.4,N
1678232955.7,286047001.0,N
1678232975.5,286046996.9,Y
1678232995.4,286046998.7,P
1678233015.2,286047002.4,P
1678233035.0,286047000.9,N
1678233035.9,286047000.9,N
1678233055.8,286046998.8,N
1678233075.6,286046999.0,N
1678233095.4,286046999.0,N
1678233115.3,286046999.4,N
1678233135.1,286046996.5,N
1678233155.9,286046996.5,N
1678233175.7,286046996.6,N
1678233195.5,286046996.9,N
1678233215.4,286046999.6,N
1678233235.2,286046997.7,N
1678233255.0,286046997.3,N
1678233255.9,286046997.3,N
1678233275.8,286046996.9,N
1678233295.6,286046997.6,N
1678233315.5,286046996.7,N
1678233335.3,286046997.1,N
1678233355.1,286046997.4,N
1678233375.9,286046999.2,N
1678233395.7,286046997.7,N
1678233415.5,286046999.3,N
1678233435.4,286046998.3,N
1678233455.2,286046999.1,N
1678233475.1,286046998.8,N
1678233476.0,286046998.8,N
1678233495.8,286046999.0,N
1678233515.6,286046998.4,N
1678233535.5,286046999.3,N
1678233555.3,286046999.6,N
1678233575.1,286046996.5,N
1678233595.9,286046997.3,N
